Regional Weather Roundup
Issued by NWS

Home | Current Version | Previous Version | Text Only | Print | Product List | Glossary Off
Versions: 1 2 3 4 5 6 7 8 9 10 11 12 13 14 15 16 17 18 19 20 21 22 23 24 25 26 27 28 29 30 31 32 33 34 35 36 37 38 39 40 41 42 43 44 45 46 47 48 49 50

000
ASUS44 KMEG 242210
RWRTN
TENNESSEE HOURLY STATE WEATHER ROUNDUP
NATIONAL WEATHER SERVICE MEMPHIS TN
500 PM CDT WED AUG 24 2016

TNZ002-004-019-021-049-052-054-088>092-242300-
WEST TENNESSEE

CITY           SKY/WX    TMP DP  RH WIND       PRES   REMARKS
MEMPHIS INTL   MOSUNNY   94  74  52 VRB7      30.09F HX 104
NWS MEMPHIS      N/A     95 N/A N/A MISG        N/A
JACKSON        SUNNY     93  72  50 SW8       30.10F HX 101
DYERSBURG      MOSUNNY  N/A N/A N/A MISG        N/A
UNION CITY     SUNNY     91  75  59 S9        30.07F HX 102
PARIS          MOSUNNY   90  75  62 SW8       30.11S HX 100
LEXINGTON      SUNNY     91  73  55 SW9       30.11S HX 100
$$

TNZ008-025-027-028-033-062-065-066-242300-
NORTH MIDDLE TENNESSEE

CITY           SKY/WX    TMP DP  RH WIND       PRES   REMARKS
NASHVILLE      PTSUNNY   91  71  51 S10       30.12F HX  97
CLARKSVILLE    CLOUDY    88  73  61 SW12      30.10F HX  95
SMYRNA         SUNNY     90  72  55 SW8       30.15F HX  96
COOKEVILLE     SUNNY     88  77  70 CALM      30.16S HX 100
CROSSVILLE     CLOUDY    83  71  67 VRB5      30.23S
$$

TNZ061-075-076-078-094-096-097-242300-
SOUTH MIDDLE TENNESSEE

CITY           SKY/WX    TMP DP  RH WIND       PRES   REMARKS
FAYETTEVILLE   SUNNY     90  70  51 CALM      30.16F HX  95
TULLAHOMA      PTSUNNY   90  66  45 VRB3      30.18F HX  92
WINCHESTER     SUNNY     91  70  49 CALM      30.17S HX  97
MCMINNVILLE    SUNNY     90  73  58 W8        30.17S HX  98
COLUMBIA       MOSUNNY   91  75  59 S7        30.12F HX 102
SHELBYVILLE    MOSUNNY   93  73  52 SW5       30.16F HX 102
$$

TNZ017-018-042-046-047-242300-
NORTHEAST TENNESSEE

CITY           SKY/WX    TMP DP  RH WIND       PRES   REMARKS
TRI CITIES     MOSUNNY   83  67  58 SE5       30.22F
ELIZABETHTON   SUNNY     82  68  61 CALM      30.22F
$$

TNZ012-013-036-069-073-074-242300-
CENTRAL EAST TENNESSEE

CITY           SKY/WX    TMP DP  RH WIND       PRES   REMARKS
KNOXVILLE      MOSUNNY   88  69  53 CALM      30.16F HX  92
GATLINBURG       N/A     88  68  51 VRB3      30.17S HX  91
MORRISTOWN     SUNNY     86  68  54 SW3       30.18F
$$

TNZ083-085-099-242300-
SOUTHEAST TENNESSEE

CITY           SKY/WX    TMP DP  RH WIND       PRES   REMARKS
CHATTANOOGA    CLOUDY    90  69  50 SE5       30.16S HX  94
$$

SKY/WX REPORTED AS FAIR MEANS FEW OR NO CLOUDS BELOW
12 THOUSAND FEET.





USA.gov is the U.S. government's official web portal to all federal, state and local government web resources and services.